Location: Vihti�l�
(61.3833°N, 23.0667°E)
Time: 04:50:29
(UTC+00:00)

USA 229 - Pass Details

Date: 29 November 2020
Orbit: 965 x 1247 km, 63.4° (Epoch: 16 January)

Event Time Altitude Azimuth Distance (km) Brightness Sun altitude
Exits shadow 02:07:35 71° 48° (NE) 1,162 3.8 -34.0°
Drops below altitude 10° 02:14:06 10° 75° (ENE) 3,056 6.9 -33.2°
Sets 02:16:55 0° 77° (ENE) 4,057 7.8 -32.9°
